Location: Lake Sonoma
(38.7200°N, 123.0564°W)
Time: 13:38:20
(UTC-07:00)

ISS - Visible Passes

Search period start: 01 October 2016 00:00
Search period end: 11 October 2016 00:00
Orbit: 400 x 409 km, 51.6° (Epoch: 02 October)

Date Brightness Start Highest point End Pass type
(mag) Time Alt. Az. Time Alt. Az. Time Alt. Az.
01 Oct -2.4 19:47:03 10° WSW 19:50:12 47° NW 19:53:21 10° NE visible
01 Oct 0.1 21:25:54 10° NW 21:26:07 11° NW 21:26:07 11° NW visible
02 Oct -0.8 20:32:44 10° WNW 20:34:53 16° NNW 20:36:13 13° N visible
03 Oct -1.2 19:39:49 10° W 19:42:30 23° NNW 19:45:12 10° NNE visible
04 Oct -0.5 20:26:20 10° NNW 20:27:24 11° NNW 20:28:29 10° N visible
05 Oct -0.7 19:33:00 10° NW 19:34:55 14° NNW 19:36:48 10° NNE visible
07 Oct -0.5 19:26:47 10° NNW 19:27:23 10° NNW 19:27:59 10° N visible
10 Oct -0.7 20:04:26 10° N 20:04:59 10° NNE 20:05:19 10° NNE visible
